Find Ekspress-2

NORAD ID: 23319 Int'l Des: 1994-067 Owner: GPKS Country: RU operational
HEOCIRCULAR

实时位置

正在加载3D地球...

关于 Ekspress-2

正在加载描述...

即将过境

Passes for default location (London). Set your location on the main map for personalized predictions.

高度历史

Loading altitude history...

两行轨道根数

1 23319U 94067A 26106.80547030 .00000116 00000-0 00000+0 0 9993
2 23319 14.5027 2.4793 0005933 271.0597 263.8839 0.99822512114963
Epoch: Apr 16, 2026 • Age: 11 hours

当前状态

高度 35906.2 km
速度 3.07 km/s
星下点 -3.75°S, 42.26°E
发射日期 Oct 13, 1994
运行时间 31.5 years
类型 other

技术详情

分类 Payload
质量 2500.00 kg
干质量 2200.00 kg
总质量 2500.00 kg
长度 2.00 m
直径 2.00 m
跨度 27.00 m
形状 Cyl + 2 Pan
制造商 NPOPMR
平台类型 Ekspress
阶段状态 In Orbit
所有者/国家 GPKS/RU

Most Searched